User: anonymous   Login
Location: Windsor
(43.2292°N, 89.3015°W)
Time: 12:30:22
(UTC+00:00)
Language:

NOAA 18 - Orbit

View from above orbital plane
View from above orbital plane
View from above satellite
View from above satellite

Ground track
Ground track

The orbit data is extracted from the following two-line orbital elements,

1 28654U 05018A   22179.18384411  .00000129  00000-0  93785-4 0  9998
2 28654  98.9488 249.6113 0013223 303.3937  56.5969 14.12746680881587
Epoch (UTC): 28 June 2022 04:24:44
Eccentricity: 0.0013223
inclination: 98.9488°
perigee height: 840 km
apogee height: 859 km
right ascension of ascending node: 249.6113°
argument of perigee: 303.3937°
revolutions per day: 14.12746680
mean anomaly at epoch: 56.5969°
orbit number at epoch: 88158

The dashed part of the orbit path shows where the satellite is in the earth's shadow,  

DLR